Regional Weather Roundup
Issued by NWS

Home | Current Version | Previous Version | Graphics & Text | Print | Product List | Glossary On
Versions: 1 2 3 4 5 6 7 8 9 10 11 12 13 14 15 16 17 18 19 20 21 22 23 24 25 26 27 28 29 30 31 32 33 34 35 36 37 38 39 40 41 42 43 44 45 46 47 48 49 50
000
ASUS44 KMEG 211910
RWRTN
TENNESSEE HOURLY STATE WEATHER ROUNDUP
NATIONAL WEATHER SERVICE MEMPHIS TN
200 PM CDT SAT OCT 21 2017

TNZ002-004-019-021-049-052-054-088>092-212000-
WEST TENNESSEE

CITY           SKY/WX    TMP DP  RH WIND       PRES   REMARKS
MEMPHIS INTL   MOSUNNY   81  62  52 SE17      30.07F
NWS MEMPHIS      N/A     81 N/A N/A MISG        N/A
JACKSON        MOSUNNY   78  61  55 S14G20    30.12F
DYERSBURG        N/A     81  61  50 SE10G17   30.10F
SOMERVILLE     CLOUDY    79  61  53 VRB7G18   30.10S
COVINGTON      MOSUNNY   81  61  50 S13G20    30.09F
UNION CITY     SUNNY     81  57  44 S14G21    30.09F
BOLIVAR        SUNNY     77  63  61 SE9       30.11F
PARIS          SUNNY     77  57  50 S14G21    30.12F
HUNTINGDON     SUNNY     77  59  53 S13       30.12F
LEXINGTON      SUNNY     75  59  57 VRB6G13   30.14F
SELMER         SUNNY     77  63  61 S10G17    30.13F
SAVANNAH       SUNNY     77  63  61 S8G14     30.13F
$$

TNZ008-025-027-028-033-062-065-066-212000-
NORTH MIDDLE TENNESSEE

CITY           SKY/WX    TMP DP  RH WIND       PRES   REMARKS
NASHVILLE      CLOUDY    78  55  44 S13       30.19F
PORTLAND       SUNNY     73  54  49 S8        30.19F
CLARKSVILLE    MOSUNNY   76  52  43 S7        30.16F
SMYRNA         MOSUNNY   78  57  48 SE9       30.19F
COOKEVILLE     SUNNY     79  46  31 CALM      30.22F
GALLATIN       SUNNY     77  54  44 S3        30.21F
CROSSVILLE     SUNNY     72  43  35 S8G17     30.27F
$$

TNZ061-075-076-078-094-096-097-212000-
SOUTH MIDDLE TENNESSEE

CITY           SKY/WX    TMP DP  RH WIND       PRES   REMARKS
FAYETTEVILLE   SUNNY     75  55  50 S8G15     30.20F
TULLAHOMA      SUNNY     77  52  41 S9        30.22F
WINCHESTER     SUNNY     77  52  41 SE12        N/A
COLUMBIA       SUNNY     75  59  57 S8        30.16F
SHELBYVILLE    SUNNY     75  57  53 SE6       30.20F
$$

TNZ017-018-042-046-047-212000-
NORTHEAST TENNESSEE

CITY           SKY/WX    TMP DP  RH WIND       PRES   REMARKS
TRI CITIES     PTSUNNY   77  44  30 CALM      30.28F
ELIZABETHTON   SUNNY     79  41  25 CALM      30.27F
$$

TNZ012-013-036-069-073-074-212000-
CENTRAL EAST TENNESSEE

CITY           SKY/WX    TMP DP  RH WIND       PRES   REMARKS
KNOXVILLE      PTSUNNY   73  53  49 CALM      30.25F
OAK RIDGE      SUNNY     73  52  47 VRB3      30.27F
DOWNTOWN KNOXV SUNNY     73  54  49 CALM      30.26F
GATLINBURG     SUNNY     75  48  38 NE6       30.25F
MORRISTOWN     SUNNY     75  50  41 CALM      30.26F
JACKSBORO      SUNNY     73  55  53 CALM      30.30F
$$

TNZ083-085-099-212000-
SOUTHEAST TENNESSEE

CITY           SKY/WX    TMP DP  RH WIND       PRES   REMARKS
CHATTANOOGA    MOSUNNY   77  48  35 SE14      30.23F
DAYTON         CLEAR     75  59  57 CALM      30.24F
$$

SKY/WX REPORTED AS FAIR MEANS FEW OR NO CLOUDS BELOW
12 THOUSAND FEET.





USA.gov is the U.S. government's official web portal to all federal, state and local government web resources and services.